This is the latest recevied weather packets stored in our database for station/object WD4ITN. If no packets are shown the sender has not sent any weather packets the latest 10 day(s).
| Time | Temp. | Humidity | Pressure | Rain* | Wind** | Luminosity | Snow |
|---|---|---|---|---|---|---|---|
| 1787598804 | 22.22° C | 54% | 1016.9 hPa | 0 mm | - | - | - |
| 1787598506 | 22.22° C | 61% | 1016.8 hPa | 0 mm | - | - | - |
| 1787598209 | 22.22° C | 56% | 1016.8 hPa | 0 mm | - | - | - |
| 1787597897 | 22.22° C | 59% | 1016.8 hPa | 0 mm | - | - | - |
| 1787597598 | 22.22° C | 57% | 1016.9 hPa | 0 mm | - | - | - |
| 1787597299 | 22.22° C | 60% | 1016.7 hPa | 0 mm | - | - | - |
| 1787596996 | 21.67° C | 58% | 1016.6 hPa | 0 mm | - | - | - |
| 1787596717 | 22.22° C | 59% | 1016.9 hPa | 0 mm | - | - | - |
| 1787596420 | 21.67° C | 56% | 1016.9 hPa | 0 mm | - | - | - |
| 1787596109 | 21.67° C | 59% | 1016.9 hPa | 0 mm | - | - | - |
| 1787595808 | 21.67° C | 59% | 1016.9 hPa | 0 mm | - | - | - |
| 1787595508 | 21.67° C | 59% | 1016.7 hPa | 0 mm | - | - | - |
| 1787595209 | 21.67° C | 58% | 1016.8 hPa | 0 mm | - | - | - |
| 1787594905 | 21.67° C | 58% | 1016.8 hPa | 0 mm | - | - | - |
| 1787594602 | 21.67° C | 61% | 1016.8 hPa | 0 mm | - | - | - |
| 1787594300 | 21.67° C | 61% | 1016.7 hPa | 0 mm | - | - | - |
| 1787594000 | 21.67° C | 61% | 1016.7 hPa | 0 mm | - | - | - |
| 1787593696 | 21.11° C | 60% | 1016.7 hPa | 0 mm | - | - | - |
| 1787593413 | 21.11° C | 59% | 1016.7 hPa | 0 mm | - | - | - |
| 1787593111 | 21.11° C | 62% | 1016.8 hPa | 0 mm | - | - | - |
| 1787592810 | 21.11° C | 61% | 1016.8 hPa | 0 mm | - | - | - |
| 1787592507 | 21.11° C | 60% | 1016.9 hPa | 0 mm | - | - | - |
| 1787592204 | 21.11° C | 61% | 1016.9 hPa | 0 mm | - | - | - |
| 1787591902 | 21.11° C | 59% | 1016.9 hPa | 0 mm | - | - | - |
| 1787591601 | 21.11° C | 59% | 1017 hPa | 0 mm | - | - | - |
* Rain since midnight (hover to see other rain measurements)
** Current wind speed in m/s (hover to see current wind gust speed)